Istanbul, Turkey

1:05 PM +03 on May 23, 2018 (GMT +0300)
Ataturk

Weather History for LTBA - April, 2013

Change the Weather History Date:

Thursday, April 18, 2013

  Actual Average Record
Temperature  
Mean Temperature 51 °F -  
Max Temperature 59 °F 65 °F 78 °F (1999)
Min Temperature 43 °F 50 °F 41 °F (1997)
Degree Days  
Heating Degree Days 14    
Growing Degree Days 1 (Base 50)    
Moisture  
Dew Point 38 °F    
Average Humidity 65    
Maximum Humidity 93    
Minimum Humidity 27    
Precipitation  
Precipitation 0.00 in - - ()
Sea Level Pressure  
Sea Level Pressure 30.09 in    
Wind  
Wind Speed 9 mph ()    
Max Wind Speed 17 mph    
Max Gust Speed 24 mph    
Visibility 5.7 miles    
Events Rain    
Averages and records for this station are not official NWS values.
T = Trace of Precipitation, MM = Missing Value Source: Averaged Metar Reports

Daily Weather History Graph

Daily Weather History Graph

Search for Another Location

Airport or City:

Astronomy

Apr. 18, 2013 Rise Set
Actual Time 6:21 AM EEST 7:47 PM EEST
Civil Twilight 5:52 AM EEST 8:16 PM EEST
Nautical Twilight 5:17 AM EEST 8:51 PM EEST
Astronomical Twilight 4:41 AM EEST 9:27 PM EEST
Moon 12:12 PM EEST (4/18) 1:51 AM EEST (4/18)
Length of Visible Light 14h 23m
Length of Day
13h 26m
Waxing Crescent, 49% of the Moon is Illuminated
Apr 18
Waxing Crescent
Apr 18
First Quarter
Apr 25
Full
May 2
Last Quarter
May 10
New

Hourly Weather History & Observations

Time (EEST) Temp. Windchill Dew Point Humidity Pressure Visibility Wind Dir Wind Speed Gust Speed Precip Events Conditions
12:20 AM 46.4 °F 41.5 °F 41.0 °F 81% 30.12 in 6.2 mi North 10.4 mph - N/A   Scattered Clouds
12:50 AM 46.4 °F 42.4 °F 41.0 °F 81% 30.12 in 6.2 mi North 8.1 mph - N/A   Scattered Clouds
1:20 AM 46.4 °F 42.9 °F 41.0 °F 81% 30.12 in 6.2 mi North 6.9 mph - N/A   Scattered Clouds
1:50 AM 46.4 °F 43.5 °F 41.0 °F 81% 30.12 in 6.2 mi NNW 5.8 mph - N/A   Scattered Clouds
2:20 AM 46.4 °F 42.9 °F 41.0 °F 81% 30.12 in 6.2 mi NNW 6.9 mph - N/A   Scattered Clouds
2:50 AM 44.6 °F 40.7 °F 39.2 °F 81% 30.09 in 6.2 mi NNW 6.9 mph - N/A   Scattered Clouds
3:00 AM 44 °F - 39 °F 78% 30.12 in 6 mi NNW 6.9 mph - -   Mostly Cloudy
3:20 AM 44.6 °F 40.7 °F 41.0 °F 87% 30.09 in 6.2 mi NNW 6.9 mph - N/A   Scattered Clouds
3:50 AM 44.6 °F 39.2 °F 41.0 °F 87% 30.09 in 6.2 mi North 10.4 mph - N/A   Scattered Clouds
4:20 AM 44.6 °F 40.2 °F 41.0 °F 87% 30.09 in 4.3 mi North 8.1 mph - N/A   Partly Cloudy
4:50 AM 44.6 °F 40.7 °F 41.0 °F 87% 30.09 in 6.2 mi North 6.9 mph - N/A   Partly Cloudy
5:20 AM 44.6 °F 40.7 °F 42.8 °F 93% 30.09 in 6.2 mi North 6.9 mph - N/A   Partly Cloudy
5:50 AM 44.6 °F 40.7 °F 41.0 °F 87% 30.09 in - North 6.9 mph - N/A   Clear
6:20 AM 46.4 °F 41.9 °F 42.8 °F 87% 30.09 in 6.2 mi North 9.2 mph - N/A   Partly Cloudy
6:50 AM 46.4 °F 41.9 °F 41.0 °F 81% 30.09 in 6.2 mi NNE 9.2 mph - N/A   Partly Cloudy
7:20 AM 48.2 °F - 41.0 °F 76% 30.09 in 6.2 mi NNE 9.2 mph - N/A   Partly Cloudy
7:50 AM 48.2 °F - 41.0 °F 76% 30.09 in 6.2 mi NNE 10.4 mph - N/A   Partly Cloudy
8:20 AM 50.0 °F - 39.2 °F 66% 30.12 in 6.2 mi NNE 9.2 mph - N/A   Partly Cloudy
8:50 AM 51.8 °F - 39.2 °F 62% 30.12 in 6.2 mi NNE 9.2 mph - N/A   Partly Cloudy
9:00 AM 51 °F - 39 °F 54% 30.13 in 6 mi NNE 9.2 mph - -   Scattered Clouds
9:20 AM 51.8 °F - 37.4 °F 58% 30.09 in 6.2 mi NE 6.9 mph - N/A   Partly Cloudy
9:50 AM 51.8 °F - 37.4 °F 58% 30.09 in 6.2 mi NNE 8.1 mph - N/A   Scattered Clouds
10:20 AM 51.8 °F - 35.6 °F 54% 30.09 in 6.2 mi NNW 12.7 mph - N/A   Scattered Clouds
10:50 AM 51.8 °F - 39.2 °F 62% 30.09 in 6.2 mi North 12.7 mph - N/A   Mostly Cloudy
11:08 AM 51.8 °F - 37.4 °F 58% 30.09 in 2.5 mi NNE 11.5 mph - N/A   Haze
11:20 AM 51.8 °F - 39.2 °F 62% 30.09 in 2.5 mi NNE 10.4 mph - N/A   Haze
11:50 AM 51.8 °F - 37.4 °F 58% 30.09 in 3.7 mi North 13.8 mph - N/A   Mostly Cloudy
12:08 PM 50.0 °F - 37.4 °F 62% 30.09 in 3.7 mi North 15.0 mph - N/A Rain Light Rain Showers
12:20 PM 50.0 °F - 41.0 °F 71% 30.09 in 3.7 mi North 9.2 mph - N/A   Mostly Cloudy
12:50 PM 53.6 °F - 41.0 °F 62% 30.09 in 5.0 mi North 11.5 mph - N/A   Mostly Cloudy
1:20 PM 55.4 °F - 37.4 °F 51% 30.09 in 4.3 mi NE 9.2 mph 20.7 mph N/A   Mostly Cloudy
1:50 PM 51.8 °F - 39.2 °F 62% 30.09 in 4.3 mi ESE 11.5 mph - N/A   Mostly Cloudy
2:20 PM 55.4 °F - 35.6 °F 47% 30.09 in 6.2 mi NE 11.5 mph - N/A   Mostly Cloudy
2:50 PM 55.4 °F - 30.2 °F 38% 30.09 in 6.2 mi NNE 13.8 mph - N/A   Scattered Clouds
3:00 PM 56 °F - 31 °F 27% 30.10 in 6 mi NNE 13.8 mph - -   Partly Cloudy
3:20 PM 57.2 °F - 26.6 °F 31% 30.09 in 6.2 mi NNE 17.3 mph - N/A   Scattered Clouds
3:50 PM 57.2 °F - 26.6 °F 31% 30.09 in 6.2 mi Variable 12.7 mph 24.2 mph N/A   Scattered Clouds
4:20 PM 57.2 °F - 28.4 °F 33% 30.06 in 6.2 mi NE 12.7 mph - N/A   Scattered Clouds
4:50 PM 57.2 °F - 33.8 °F 41% 30.06 in 6.2 mi North 11.5 mph - N/A   Scattered Clouds
5:20 PM 55.4 °F - 32.0 °F 41% 30.06 in 6.2 mi NNE 12.7 mph - N/A   Partly Cloudy
5:50 PM 55.4 °F - 32.0 °F 41% 30.06 in 6.2 mi NE 12.7 mph - N/A   Scattered Clouds
6:20 PM 55.4 °F - 32.0 °F 41% 30.06 in 6.2 mi NNE 11.5 mph - N/A   Scattered Clouds
6:50 PM 53.6 °F - 35.6 °F 51% 30.06 in 6.2 mi North 11.5 mph - N/A   Partly Cloudy
7:20 PM 53.6 °F - 37.4 °F 54% 30.06 in 6.2 mi North 10.4 mph - N/A   Partly Cloudy
7:50 PM 51.8 °F - 37.4 °F 58% 30.06 in 6.2 mi NNE 9.2 mph - N/A   Partly Cloudy
8:20 PM 50.0 °F - 39.2 °F 66% 30.06 in - NNE 8.1 mph 20.7 mph N/A   Clear
8:50 PM 48.2 °F - 39.2 °F 71% 30.06 in - North 9.2 mph - N/A   Clear
9:00 PM 48 °F - 40 °F 64% 30.09 in 6 mi North 9.2 mph - -  
9:20 PM 50.0 °F - 41.0 °F 71% 30.06 in 6.2 mi NNE 8.1 mph - N/A   Partly Cloudy
9:50 PM 48.2 °F - 41.0 °F 76% 30.06 in 6.2 mi NNE 8.1 mph - N/A   Partly Cloudy
10:20 PM 48.2 °F - 41.0 °F 76% 30.06 in 6.2 mi NNE 8.1 mph - N/A   Partly Cloudy
10:50 PM 48.2 °F - 41.0 °F 76% 30.06 in 6.2 mi NNE 8.1 mph - N/A   Partly Cloudy
11:50 PM 46.4 °F 44.3 °F 39.2 °F 76% 30.04 in 6.2 mi NNE 4.6 mph - N/A   Partly Cloudy